COSMOS 1947 (GLONASS)

Satellite information

Favourite Embed

Satellite Type and Status

PAYLOADIN ORBIT

Key statistics

Satellite COSMOS 1947 (GLONASS) at a glance.

Uptime

13616

Days in orbit

Revolutions

≈ 2.1

Per day

Orbit

MEO

Medium Earth Orbit

Inclination

64.8

Latest

Satellite identification and parameters

Extended collection of information and parameters for COSMOS 1947 (GLONASS).

Object identification

Identified? True

Debris? False

Object name: COSMOS 1947 (GLONASS)

International designator: 1988-043B

Object number (NORAD): 19164

Object ID (CCSDS): 19164

Country: COMMONWEALTH OF INDEPENDENT STATES (CIS)

Current information (Y/N): Y

RCS size: LARGE

Orbital parameters

Period: 675.726 minutes

Inclination: 64.7943 deg

SMA: 25507.864 km

Apoapsis: 19188.962 km

Periapsis: 19070.497 km

RAAN: 83.6095 deg

Eccentricy: 0.00232214

Argument of periapsis: 220.6982 deg

Mean anomaly: 321.5077 deg

Mean motion: 2.13104005 rev/day

Mean motion (dot): -0.00000001 rev/day2

B* drag term: 0.0 1/REarth

Two-line elements (TLE)

Creation date: Aug. 26, 2025, 10:27 p.m.

Reference frame: TEME

Reference center: EARTH

Epoch: Aug. 26, 2025, 6:11 a.m. UTC

TLE line 0: 0 COSMOS 1947 (GLONASS)

TLE line 1: 1 19164U 88043B 25238.25808556 -.00000001 00000-0 00000-0 0 9995

TLE line 2: 2 19164 64.7943 83.6095 0023221 220.6982 321.5077 2.13104005285013

Live tracking on map

Real-time ground track for satellite COSMOS 1947 (GLONASS).

In-orbit conjunctions

There are no conjunctions computed for COSMOS 1947 (GLONASS), at the moment. Check back to stay up to date, as we update our databases every day.

Go to all conjunctions

Associated space launch

GLONASS navigation satellites

COSMOS 1947 (GLONASS) was lifted into orbit during the mission ‘Proton | Uragan 26 to 28’, on board a Proton space rocket.

The launch took place on May 21, 1988, 5:57 p.m. from 200/39 (200L).

For more information about the launch, click the button.

Launch to space Proton | Uragan 26 to 28
Proton | Uragan 26 to 28

Agency: N/A

Status: Launch Successful

Launch date: May 21, 1988, 5:57 p.m. UTC

Rocket: Proton

Launch pad: 200/39 (200L)

Location: Baikonur Cosmodrome, Republic of Kazakhstan

...

Latest news about this satellite

There are no fresh news available about this satellite. Check back as we update our databases every day.


Newsletter sign-up

Weekly statistics, charts and insights to help you stay on top of the space industry.